Other Public Products
Issued by NWS Charleston, SC

Current Version | Previous Version | Text Only | Print | Product List | Glossary Off
Versions: 1 2 3 4 5 6 7 8 9 10 11 12 13 14 15 16 17 18 19 20 21 22 23 24 25 26 27 28 29 30 31 32 33 34 35 36 37 38 39 40 41 42 43 44 45 46 47 48 49 50
051 FPUS82 KCHS 220727 OPUCHS TEST...KCHS/KSAV Gateway Observations...TEST National Weather Service Charleston SC 200 AM EST WED NOV 22 2017 NOTE: "fair" indicates few or no clouds below 12,000 feet with no significant weather and/or obstructions to visibility. SCZ050-WAZ558-NCZ071-TXZ119-213-PAZ071-DCZ001-FLZ074-172-MI076- NYZ176-178-MAZ016-IL014-TNZ027-NJZ106-GAZ044-MD014-220800- ...Gateway Observations for Charleston International... CITY SKY/WX TMP DP RH WIND PRES REMARKS Chas Airport CLOUDY 62 61 96 W6 29.95S Seattle CLOUDY 57 56 96 S3 29.94S Charlotte CLOUDY 52 52 100 NW3 29.99F FOG Dallas DFW CLEAR 53 35 50 N13 30.24R Dallas Love CLEAR 53 35 50 N13 30.25S Philladelphia CLOUDY 54 45 71 S5 29.97F Wash National CLOUDY 53 46 77 S8 29.96F Baltimore MOCLDY 52 45 77 CALM 29.95F Miami PTCLDY 71 70 96 CALM 29.91F Detroit CLOUDY 34 23 64 NW13 30.09R WCI 25 Newark CLOUDY 48 40 73 CALM 29.98F Laguardia NOT AVBL J F K CLOUDY 48 45 89 CALM 30.00F Boston Logan CLOUDY 44 40 85 S7 30.02S Ft. Lauderdale PTCLDY 73 71 93 CALM 29.90F Chicago O`Hare CLEAR 27 14 58 NW12 30.22R WCI 17 Chicago Midway CLEAR 27 15 61 N14 30.23R WCI 16 Houston Bush MOCLDY 59 56 89 N8 30.08R Houston Hobby MOCLDY 60 56 86 NE14 30.06S Nashville CLEAR 45 35 68 N8 30.14R Atlanta CLOUDY 56 54 93 N5 30.03S $$ GAZ044-118-TXZ119-213-NCZ071-DCZ001-MDZ014-506-PAZ021-071-NJZ106- NYZ176-178-MAZ106-OHZ011-021-055-MIZ076-KYZ091-ILZ014-INZ047- MNZ060-ONZ431-220800- ...Gateway Observations for Savannah International... CITY SKY/WX TMP DP RH WIND PRES REMARKS Savannah Arpt CLOUDY 61 61 100 SW3 29.98S FOG Atlanta CLOUDY 56 54 93 N5 30.03S Charlotte CLOUDY 52 52 100 NW3 29.99F FOG Dallas DFW CLEAR 53 35 50 N13 30.24R Houston Bush MOCLDY 59 56 89 N8 30.08R Wash National CLOUDY 53 46 77 S8 29.96F Wash Dulles CLOUDY 52 45 77 S8 29.94F Baltimore MOCLDY 52 45 77 CALM 29.95F Philadelphia CLOUDY 54 45 71 S5 29.97F Newark CLOUDY 48 40 73 CALM 29.98F Laguardia NOT AVBL J F K CLOUDY 48 45 89 CALM 30.00F Boston CLOUDY 44 40 85 S7 30.02S Pittsburg CLOUDY 45 34 65 W9 29.94R Akron LGT SNOW 35 32 88 NW10 30.00R FOG WCI 27 Cleveland CLOUDY 38 35 89 W7 30.04R WCI 33 Cincinnati PTCLDY 34 30 85 NW10 30.13R WCI 26 Columbus CLOUDY 36 35 99 W6 30.08S WCI 31 Detroit CLOUDY 34 23 64 NW13 30.09R WCI 25 Chicago O`Hare CLEAR 27 14 58 NW12 30.22R WCI 17 Minneapolis CLOUDY 18 11 74 NW8 30.35R WCI 8 Indianapolis CLEAR 28 22 78 NW8 30.19R WCI 20 Toronto Canada CLOUDY 36 25 64 NW14G21 29.94R WCI 27 $$

USA.gov is the U.S. government's official web portal to all federal, state and local government web resources and services.